Weather in Noumea

New Caledonia     22°15′12″S   166°27′57″E
temp.,
°C
wind,
m/s
gust,
m/s
humid.,
%
clouds,
%
prec.,
mm/h
press.,
hPa
HPBL,
m
23 april, fri
fri2323:00+22sse228466 0.1 1015316
02:00+22ese238356 0.0 1014275
05:00+22ese228545 0.0 1015167
08:00+23e2379100 0.0 1016448
11:00+25sse337148 0.0 1015736
14:00+24se5577100 0.1 1013619
17:00+23se558068 0.1 1014460
20:00+23ese348189 0.0 1016351
24 april, sat
sat2423:00+22e238449 0.0 1016206
02:00+22ene338576 0.0 1015159
05:00+22e338611 0.0 1015155
08:00+24e237999 0.0 1017301
11:00+26sse447076 0.0 1016884
14:00+25ese5576100 0.3 1014543
17:00+24ese568385 2.6 1015459
20:00+23e458586 0.4 1017320
25 april, sun
sun2523:00+23e3485100 0.5 1017299
02:00+23e4583100 0.1 1015391
05:00+22e4581100 0.1 1015418
08:00+23ene3677100 0.0 1017546
11:00+26e346275 0.0 10151000
14:00+27ese446077 0.0 1013897
17:00+25ese5571100 0.1 1013402
20:00+23ene3477100 0.0 1016256
26 april, mon
mon2623:00+23ene2280100 0.3 1016163
02:00+23ene1180100 0.2 1014143
05:00+22ese1284100 0.9 1014147
08:00+23se3481100 1.7 1016477
11:00+23se4576100 2.1 1015822
14:00+24se5574100 0.3 1013925
17:00+23se457798 0.6 1013532
20:00+22se4583100 0.3 1015445
27 april, tue
tue2723:00+21ese458458 0.7 1015446
02:00+22ese468287 1.1 1014506
05:00+22ese578090 2.4 1013673
08:00+22se697699 1.0 1015968
11:00+22ese6872100 1.5 1015980
14:00+22se7871100 0.9 10131185
17:00+22se6870100 1.0 1013881
20:00+21se587081 0.1 1015766